GFSNIL_prec_cprec_231.txt.gz
QPF
0.12 0.15 0.04 0.08 0.02 0.00 0.00 0.00 0.00 0.00 0.00 0.01 0.00 0.00 0.00 0.00 0.00 0.00 0.02 0.14 0.08 0.08
0.07 0.10 0.04 0.04 0.02 0.00 0.00 0.00 0.00 0.00 0.00 0.00 0.00 0.00 0.00 0.00 0.00 0.00 0.01 0.06 0.02 0.02
0.10 0.14 0.12 0.07 0.01 0.00 0.00 0.00 0.02 0.01 0.00 0.00 0.00 0.00 0.00 0.00 0.01 0.00 0.00 0.00 0.00 0.13
0.06 0.11 0.11 0.08 0.03 0.00 0.00 0.00 0.00 0.00 0.00 0.00 0.00 0.00 0.00 0.02 0.17 0.07 0.02 0.00 0.00 0.01
0.08 0.05 0.02 0.02 0.02 0.00 0.00 0.00 0.00 0.00 0.00 0.00 0.01 0.00 0.00 0.02 0.19 0.12 0.12 0.05 0.00 0.02
0.03 0.05 0.01 0.00 0.00 0.00 0.00 0.00 0.00 0.00 0.00 0.00 0.00 0.00 0.00 0.03 0.14 0.05 0.23 0.07 0.00 0.05
0.06 0.06 0.03 0.03 0.00 0.00 0.00 0.00 0.00 0.00 0.00 0.02 0.02 0.00 0.02 0.03 0.05 0.01 0.23 0.11 0.02 0.02
0.10 0.07 0.05 0.03 0.00 0.02 0.01 0.01 0.00 0.00 0.01 0.05 0.11 0.06 0.10 0.13 0.07 0.00 0.14 0.07 0.02 0.00
0.04 0.06 0.04 0.04 0.03 0.01 0.09 0.16 0.04 0.03 0.12 0.17 0.05 0.07 0.11 0.08 0.00 0.00 0.00 0.00 0.00 0.00
0.09 0.06 0.08 0.12 0.10 0.03 0.04 0.12 0.03 0.09 0.10 0.08 0.08 0.15 0.13 0.13 0.05 0.00 0.00 0.00 0.00 0.00
0.18 0.23 0.14 0.11 0.08 0.06 0.05 0.07 0.08 0.08 0.04 0.03 0.04 0.13 0.14 0.07 0.02 0.00 0.00 0.00 0.00 0.02
0.36 0.27 0.27 0.25 0.18 0.16 0.15 0.14 0.10 0.14 0.11 0.02 0.01 0.04 0.06 0.06 0.05 0.02 0.00 0.00 0.00 0.00
0.07 0.13 0.31 0.39 0.31 0.37 0.34 0.25 0.22 0.16 0.16 0.19 0.28 0.24 0.09 0.13 0.14 0.06 0.03 0.01 0.02 0.01
0.00 0.02 0.02 0.17 0.40 0.41 0.45 0.45 0.32 0.28 0.25 0.24 0.27 0.26 0.18 0.17 0.07 0.07 0.10 0.05 0.07 0.05

GFSNIL_prec_cprec_234.txt.gz
QPF
0.03 0.00 0.00 0.03 0.00 0.00 0.00 0.00 0.04 0.03 0.01 0.00 0.00 0.00 0.00 0.00 0.04 0.03 0.02 0.02 0.07 0.09
0.03 0.03 0.00 0.02 0.06 0.03 0.00 0.00 0.00 0.00 0.02 0.05 0.04 0.01 0.00 0.00 0.01 0.01 0.04 0.04 0.01 0.08
0.00 0.00 0.00 0.03 0.01 0.00 0.00 0.00 0.00 0.00 0.01 0.07 0.07 0.01 0.00 0.00 0.01 0.07 0.20 0.06 0.04 0.01
0.03 0.01 0.00 0.00 0.05 0.02 0.03 0.00 0.00 0.01 0.03 0.01 0.02 0.00 0.00 0.00 0.00 0.04 0.10 0.02 0.15 0.09
0.09 0.11 0.07 0.07 0.09 0.10 0.02 0.02 0.00 0.01 0.02 0.01 0.02 0.01 0.00 0.02 0.04 0.00 0.04 0.03 0.06 0.19
0.17 0.20 0.15 0.10 0.11 0.11 0.01 0.00 0.00 0.00 0.00 0.00 0.01 0.05 0.03 0.05 0.04 0.04 0.09 0.11 0.01 0.04
0.17 0.21 0.19 0.11 0.11 0.06 0.09 0.03 0.00 0.00 0.00 0.03 0.11 0.12 0.08 0.09 0.02 0.03 0.13 0.06 0.01 0.01
0.18 0.22 0.23 0.21 0.22 0.18 0.17 0.13 0.04 0.02 0.02 0.03 0.09 0.09 0.07 0.06 0.03 0.01 0.07 0.03 0.04 0.02
0.12 0.15 0.24 0.25 0.28 0.31 0.22 0.27 0.24 0.12 0.06 0.14 0.07 0.11 0.24 0.27 0.04 0.00 0.01 0.00 0.01 0.00
0.05 0.08 0.15 0.21 0.24 0.29 0.30 0.36 0.27 0.34 0.45 0.32 0.17 0.13 0.15 0.20 0.16 0.01 0.00 0.00 0.00 0.00
0.16 0.04 0.06 0.11 0.25 0.28 0.34 0.29 0.19 0.29 0.31 0.18 0.09 0.18 0.19 0.19 0.07 0.00 0.00 0.03 0.04 0.01
0.01 0.01 0.01 0.05 0.10 0.15 0.17 0.17 0.28 0.29 0.30 0.24 0.24 0.23 0.27 0.27 0.20 0.19 0.18 0.20 0.10 0.04
0.00 0.00 0.00 0.00 0.01 0.02 0.04 0.11 0.21 0.20 0.17 0.14 0.15 0.16 0.23 0.19 0.27 0.30 0.19 0.14 0.12 0.07
0.00 0.00 0.00 0.00 0.00 0.01 0.02 0.04 0.05 0.05 0.05 0.04 0.01 0.03 0.03 0.03 0.13 0.16 0.12 0.08 0.07 0.09

GFSNIL_prec_cprec_237.txt.gz
QPF
0.05 0.01 0.01 0.07 0.08 0.03 0.01 0.02 0.00 0.05 0.07 0.06 0.08 0.02 0.01 0.04 0.03 0.03 0.05 0.12 0.09 0.12
0.05 0.02 0.04 0.14 0.09 0.05 0.02 0.00 0.00 0.00 0.01 0.02 0.05 0.06 0.14 0.09 0.06 0.08 0.10 0.10 0.11 0.09
0.02 0.01 0.02 0.04 0.04 0.04 0.01 0.00 0.00 0.00 0.00 0.00 0.02 0.17 0.16 0.10 0.05 0.06 0.06 0.11 0.10 0.08
0.00 0.00 0.00 0.00 0.01 0.02 0.04 0.02 0.02 0.00 0.01 0.00 0.01 0.05 0.06 0.05 0.03 0.02 0.04 0.05 0.09 0.07
0.00 0.00 0.01 0.03 0.02 0.02 0.03 0.02 0.00 0.00 0.00 0.00 0.00 0.00 0.00 0.00 0.00 0.01 0.02 0.10 0.08 0.05
0.00 0.00 0.01 0.03 0.03 0.03 0.04 0.05 0.00 0.00 0.00 0.00 0.00 0.00 0.01 0.00 0.00 0.01 0.05 0.03 0.04 0.01
0.07 0.02 0.00 0.01 0.00 0.01 0.05 0.16 0.05 0.02 0.02 0.00 0.01 0.01 0.02 0.02 0.01 0.01 0.00 0.00 0.00 0.00
0.02 0.04 0.01 0.01 0.01 0.08 0.16 0.19 0.13 0.21 0.15 0.09 0.08 0.06 0.07 0.06 0.04 0.00 0.00 0.00 0.00 0.00
0.00 0.00 0.01 0.05 0.05 0.10 0.10 0.09 0.13 0.17 0.20 0.24 0.16 0.18 0.15 0.13 0.07 0.03 0.00 0.00 0.03 0.05
0.00 0.00 0.00 0.01 0.06 0.10 0.06 0.00 0.02 0.04 0.12 0.15 0.12 0.23 0.21 0.19 0.12 0.06 0.01 0.01 0.07 0.05
0.00 0.00 0.00 0.00 0.01 0.03 0.07 0.02 0.01 0.01 0.01 0.03 0.03 0.02 0.05 0.14 0.13 0.04 0.01 0.02 0.08 0.16
0.00 0.00 0.00 0.00 0.00 0.00 0.00 0.00 0.00 0.00 0.01 0.03 0.06 0.05 0.04 0.16 0.21 0.10 0.09 0.13 0.18 0.16
0.00 0.00 0.00 0.00 0.00 0.00 0.00 0.00 0.00 0.00 0.00 0.00 0.01 0.03 0.01 0.02 0.04 0.02 0.07 0.09 0.08 0.07
0.00 0.00 0.00 0.00 0.00 0.00 0.00 0.00 0.00 0.00 0.00 0.00 0.00 0.00 0.00 0.00 0.00 0.00 0.00 0.00 0.00 0.01

GFSNIL_prec_cprec_240.txt.gz
QPF
0.06 0.03 0.02 0.03 0.09 0.08 0.11 0.12 0.06 0.14 0.04 0.06 0.15 0.14 0.16 0.19 0.05 0.00 0.01 0.03 0.02 0.03
0.06 0.01 0.00 0.07 0.13 0.10 0.15 0.12 0.07 0.10 0.08 0.04 0.03 0.08 0.21 0.11 0.03 0.02 0.02 0.01 0.01 0.02
0.05 0.03 0.08 0.16 0.11 0.12 0.11 0.12 0.06 0.06 0.04 0.00 0.00 0.14 0.13 0.01 0.01 0.00 0.00 0.01 0.00 0.02
0.00 0.03 0.03 0.02 0.00 0.00 0.00 0.02 0.04 0.07 0.03 0.00 0.00 0.04 0.02 0.01 0.01 0.00 0.00 0.00 0.01 0.01
0.00 0.00 0.00 0.00 0.00 0.00 0.00 0.00 0.00 0.00 0.00 0.00 0.00 0.04 0.14 0.12 0.03 0.00 0.00 0.01 0.01 0.00
0.00 0.00 0.00 0.00 0.00 0.00 0.01 0.04 0.05 0.03 0.02 0.14 0.04 0.09 0.06 0.11 0.07 0.02 0.02 0.02 0.02 0.00
0.00 0.00 0.00 0.00 0.00 0.00 0.02 0.07 0.04 0.12 0.17 0.13 0.10 0.21 0.18 0.16 0.10 0.07 0.07 0.03 0.01 0.00
0.00 0.00 0.00 0.00 0.00 0.00 0.00 0.02 0.00 0.03 0.04 0.07 0.10 0.07 0.09 0.14 0.10 0.09 0.06 0.02 0.00 0.00
0.00 0.00 0.00 0.00 0.00 0.00 0.00 0.00 0.00 0.00 0.00 0.00 0.00 0.02 0.03 0.04 0.08 0.12 0.08 0.07 0.05 0.03
0.00 0.00 0.00 0.00 0.00 0.00 0.00 0.00 0.00 0.00 0.00 0.00 0.00 0.01 0.03 0.01 0.00 0.03 0.04 0.04 0.07 0.09
0.00 0.00 0.00 0.00 0.00 0.00 0.00 0.00 0.00 0.00 0.00 0.00 0.00 0.00 0.00 0.00 0.00 0.00 0.00 0.00 0.00 0.02
0.00 0.00 0.00 0.00 0.00 0.00 0.00 0.00 0.00 0.00 0.00 0.00 0.00 0.00 0.00 0.00 0.00 0.00 0.00 0.00 0.00 0.01
0.00 0.00 0.00 0.00 0.00 0.00 0.00 0.00 0.00 0.00 0.00 0.00 0.00 0.00 0.00 0.00 0.00 0.00 0.00 0.00 0.00 0.00
0.00 0.00 0.00 0.00 0.00 0.00 0.00 0.00 0.00 0.00 0.00 0.00 0.00 0.00 0.00 0.00 0.00 0.00 0.02 0.03 0.00 0.00

GFSNIL_prec_cprec_246.txt.gz
QPF
0.11 0.20 0.24 0.14 0.04 0.04 0.12 0.12 0.06 0.05 0.05 0.04 0.10 0.05 0.06 0.01 0.01 0.01 0.03 0.04 0.01 0.00
0.10 0.20 0.18 0.16 0.09 0.06 0.07 0.08 0.07 0.07 0.08 0.07 0.09 0.10 0.05 0.01 0.00 0.02 0.04 0.05 0.07 0.02
0.01 0.05 0.09 0.14 0.18 0.16 0.10 0.08 0.12 0.09 0.08 0.05 0.05 0.08 0.07 0.02 0.01 0.02 0.06 0.02 0.11 0.05
0.00 0.00 0.00 0.02 0.08 0.13 0.13 0.10 0.08 0.08 0.08 0.06 0.08 0.10 0.07 0.10 0.16 0.10 0.05 0.04 0.18 0.10
0.00 0.00 0.00 0.00 0.00 0.00 0.05 0.12 0.10 0.08 0.09 0.11 0.12 0.12 0.03 0.11 0.17 0.06 0.01 0.05 0.23 0.08
0.00 0.00 0.00 0.00 0.00 0.01 0.02 0.02 0.09 0.11 0.11 0.13 0.27 0.28 0.16 0.07 0.09 0.08 0.04 0.09 0.10 0.01
0.00 0.00 0.00 0.00 0.01 0.03 0.02 0.01 0.05 0.07 0.06 0.06 0.20 0.15 0.18 0.11 0.07 0.16 0.20 0.17 0.10 0.04
0.04 0.03 0.04 0.02 0.02 0.02 0.03 0.03 0.02 0.01 0.02 0.01 0.06 0.02 0.06 0.13 0.12 0.09 0.15 0.23 0.21 0.16
0.01 0.01 0.02 0.02 0.02 0.04 0.05 0.06 0.05 0.04 0.04 0.03 0.02 0.04 0.14 0.15 0.16 0.17 0.14 0.21 0.29 0.22
0.00 0.00 0.00 0.00 0.00 0.01 0.02 0.03 0.05 0.06 0.07 0.06 0.05 0.04 0.08 0.08 0.03 0.10 0.09 0.09 0.12 0.19
0.00 0.00 0.00 0.00 0.00 0.00 0.00 0.00 0.00 0.02 0.03 0.03 0.04 0.03 0.01 0.01 0.00 0.00 0.00 0.02 0.03 0.05
0.00 0.00 0.00 0.00 0.00 0.00 0.00 0.00 0.00 0.00 0.00 0.00 0.00 0.00 0.00 0.00 0.00 0.00 0.00 0.00 0.00 0.01
0.00 0.00 0.00 0.00 0.00 0.00 0.00 0.00 0.00 0.00 0.00 0.00 0.00 0.00 0.00 0.00 0.00 0.00 0.00 0.00 0.00 0.00
0.00 0.00 0.00 0.01 0.01 0.00 0.00 0.00 0.00 0.00 0.00 0.00 0.00 0.00 0.00 0.00 0.00 0.00 0.00 0.00 0.00 0.00